Retour au catalogue

STARLINK-36045

ActifCommunicationsVLEO
NORAD 66811·PAYLOAD·🇺🇸 United States

Lancé Dec 1, 2025 depuis Cape Canaveral Space Force Station

Loading…

Prochains Passages (prochaines 24 heures)

TLE

FraisSource: CelesTrak SupGP

Époque: Sep 15, 2026, 04:06 UTC

1 66811C 25278W   26258.17131944  .00039905  00000+0  14450-2 0  2588
2 66811  43.0019 124.3330 0001444 269.7667 218.2522 15.27566280    18

Suivez STARLINK-36045 en temps réel avec AllMySat

Download on the App Store